Location: Yucca Valley
(34.1140°N, 116.4310°W)
Time: 12:56:45
(UTC-07:00)

Daily predictions for brighter satellites

Satellite Brightness Start Highest point End
(mag) Time Altitude Azimuth Time Altitude Azimuth Time Altitude Azimuth
Spot 2 Rocket 4.3 20:23:57 10° SE 20:28:28 34° ENE 20:33:01 10° N
Cosmos 1420 Rocket 4.3 20:28:20 10° N 20:33:23 51° ENE 20:38:24 10° SE
SJ-6B 3.6 20:29:35 10° S 20:33:24 54° W 20:37:20 10° NNW
Cosmos 1452 Rocket 3.7 20:28:50 10° N 20:34:04 60° ENE 20:39:16 10° SSE
Cosmos 1844 Rocket 3.1 20:31:42 10° S 20:36:57 40° ESE 20:42:11 10° NE
YAOGAN 6 2.9 20:35:20 10° S 20:38:50 65° W 20:42:20 10° NNW
NOAA 11 4.4 20:36:21 10° SSE 20:41:38 57° ENE 20:46:56 10° N
Cosmos 1400 Rocket 3.2 20:38:22 10° SSW 20:42:23 68° W 20:46:22 10° N
Cosmos 1844 4.3 20:38:29 10° SSE 20:43:33 35° ESE 20:48:41 10° NE
CZ-3 Stage 3 3.1 20:42:12 10° WSW 20:45:07 55° SSE 20:55:48 10° E
Cosmos 1238 Rocket 3.3 20:42:46 10° SSE 20:45:12 24° E 20:47:41 10° NE
Cosmos 1470 3.7 20:44:36 10° NNW 20:48:24 50° W 20:52:11 10° S
Lacrosse 5 3.2 20:46:41 10° WSW 20:51:31 45° NW 20:56:22 10° NNE
Cosmos 2285 Rocket 4.0 20:45:18 10° S 20:51:35 70° ESE 20:57:51 10° NNE
Cosmos 1346 Rocket 4.3 20:49:03 10° NNE 20:52:13 22° ENE 20:54:36 14° ESE
ATLAS 3B R/B 4.3 20:49:57 10° N 20:54:40 20° NE 20:59:20 10° E
Cosmos-2242 4.3 20:51:50 10° NNE 20:55:30 26° ENE 20:58:12 15° SE
Cosmos 2266 Rocket 4.0 20:50:47 10° N 20:57:11 82° E 21:03:27 10° S
Cosmos 494 Rocket 4.4 20:55:56 10° S 21:00:49 42° ESE 21:05:46 10° NNE
Aureole 1 Rocket 3.8 20:58:41 10° SW 21:01:38 41° WNW 21:05:08 10° N
Meteor 1-24 Rocket 4.0 20:56:00 10° S 21:01:54 60° E 21:07:49 10° NNE
H-2A R/B 3.1 20:59:23 14° SE 21:03:07 31° ENE 21:07:48 10° N
Cosmos 1269 Rocket 4.0 20:59:52 10° SSW 21:05:09 88° ESE 21:10:30 10° NNE
Timation 1 Rocket 4.3 21:00:07 10° S 21:06:00 65° ESE 21:11:54 10° NNE
Resurs 1-3 4.5 21:08:47 10° S 21:13:00 49° W 21:17:15 10° NNW
SEDSat Delta rocket 3.9 21:16:04 10° SW 21:21:07 37° SSE 21:23:43 21° ESE
Iridium 4 Rocket 3.8 21:16:05 10° S 21:21:47 75° W 21:27:04 10° N
Cosmos 1953 Rocket 3.7 21:17:51 10° SSW 21:22:11 73° W 21:26:34 10° N
ATLAS 2AS CENTAUR R/B 3.4 21:14:54 10° SW 21:22:34 72° WNW 21:30:42 10° NNE
In-Cosmos 22 4.4 21:17:41 10° SSW 21:23:11 74° W 21:28:51 10° N
Aurora 2 Rocket 4.1 21:18:09 10° WSW 21:23:34 38° S 21:28:29 19° ESE
Cosmos 1437 2.7 21:20:50 10° N 21:23:59 62° E 21:25:11 33° SSE
Cosmos 1553 Rocket 4.2 21:22:24 17° SSE 21:26:51 48° E 21:32:38 10° NNE
Cosmos 1758 Rocket 4.5 21:23:01 10° SSW 21:27:20 50° W 21:31:38 10° N
Cosmos 1674 2.7 21:25:09 22° SSE 21:27:24 60° E 21:31:12 10° NNE
MetOp-B 4.4 21:25:04 22° SE 21:28:21 54° ENE 21:33:34 10° N
ERS-1 Rocket 3.7 21:26:45 23° ESE 21:29:11 38° ENE 21:33:50 10° N
BREEZE-M R/B 4.1 21:28:05 10° W 21:29:49 15° SW 21:30:38 13° SSW
DMSP B5D2-2 4.4 21:30:01 10° NNE 21:35:00 43° E 21:37:28 26° SSE
ERS-2 3.9 21:35:22 10° SSW 21:38:33 28° W 21:41:46 10° NW
Cosmos 2251 Rocket 3.7 21:37:15 22° SSE 21:40:24 49° ESE 21:45:32 10° NNE
Cosmos 1726 2.8 21:37:48 10° NNE 21:41:19 37° E 21:41:48 35° E
Resurs 01 Rocket 3.6 21:37:51 10° SSW 21:41:27 24° W 21:45:04 10° NW
Terra 3.7 21:41:23 15° E 21:42:26 16° ENE 21:45:11 10° NNE
Meteor 2-1 Rocket 4.4 21:37:18 10° N 21:43:11 61° E 21:46:08 29° SSE
Cosmos 724 4.4 21:37:40 10° NNW 21:43:44 73° ENE 21:46:54 30° SE
Cosmos 2221 4.4 21:42:18 10° NE 21:44:57 16° ENE 21:45:02 16° ENE
Cosmos 921 Rocket 3.0 21:44:12 10° NNW 21:48:42 81° ENE 21:50:23 38° SSE
Iridium 81 4.2 21:49:33 54° N 21:49:33 54° N 21:51:47 10° N
USA 215 3.3 21:46:11 27° SSE 21:50:03 72° SW 21:56:37 10° NW
OAO 3 Rocket 3.2 21:46:00 10° W 21:50:59 88° N 21:53:18 32° E
Cosmos 1461 3.0 21:52:07 15° SSW 21:55:49 77° ESE 22:00:33 10° NNE
NOSS 2-2 (E) 4.0 21:59:03 36° ENE 21:59:03 36° ENE 22:02:00 10° NE
NOSS 3-4 (A) 3.3 21:54:06 10° SSW 22:00:11 71° ESE 22:06:28 10° NE
NOSS 3-4 (C) 3.3 21:54:12 10° SSW 22:00:16 70° ESE 22:06:32 10° NE
ARGOS 3.7 21:59:19 22° S 22:02:40 56° W 22:08:00 10° NNW
Cosmos 2278 Rocket 2.1 22:00:36 23° S 22:04:09 73° ESE 22:09:49 10° NNE
IGS 5A 4.5 22:09:47 31° ENE 22:09:47 31° ENE 22:13:24 10° N
Cosmos 220 Rocket 4.4 22:07:44 21° SW 22:10:26 58° WNW 22:14:36 10° N
BREEZE-M DEB (TANK) 4.4 21:55:45 10° SW 22:10:41 66° SE 22:15:16 10° ENE
Meteor 1-21 Rocket 4.2 22:12:22 32° S 22:15:13 87° E 22:21:03 10° N
APEX 3.7 22:12:00 10° N 22:14:55 45° NE 22:14:55 45° NE
SL-14 R/B 3.1 22:20:17 83° NNE 22:20:17 83° NNE 22:24:05 10° N
CARTOSAT-1 4.1 22:21:01 43° ENE 22:21:01 43° ENE 22:25:01 10° N
TELKOM 3 4.5 22:18:37 10° NW 22:24:40 79° SW 22:24:59 74° S
SPOT 5 2.9 22:24:53 58° S 22:25:57 89° WSW 22:31:14 10° NNW
Meteor 2-13 Rocket 4.3 22:19:59 10° N 22:26:06 84° E 22:27:54 49° SSE
Cosmos 1745 Rocket 3.9 22:20:09 10° N 22:26:28 87° W 22:28:39 44° S
COSMOS 2406 3.3 22:21:12 10° NNW 22:26:56 70° WSW 22:28:30 48° S
NOSS 2-2 (D) 3.7 22:29:52 52° NE 22:29:52 52° NE 22:33:03 10° NNE
Cosmos 1076 Rocket 4.1 22:32:29 43° NE 22:32:29 43° NE 22:35:43 10° NNE
ATLAS 5 CENTAUR R/B 1.7 22:37:13 60° WSW 22:37:55 73° WNW 22:42:39 10° NNE
Cosmos 1626 3.3 22:40:50 37° NNE 22:40:50 37° NNE 22:43:14 10° N
Helios 1A 3.3 22:41:42 57° W 22:41:42 57° W 22:45:45 10° NNW
SPOT 1/Viking Rocket 3.7 22:41:24 55° SSW 22:42:15 64° WSW 22:47:22 10° NNW
H-2A R/B 3.7 22:40:01 20° SW 22:42:26 27° W 22:46:58 10° NW
ATLAS 3B R/B 2.6 22:39:23 10° NNW 22:45:59 75° WSW 22:47:23 56° S
Helios 1B rocket 2.9 22:42:20 10° N 22:46:21 56° WNW 22:46:22 56° WNW
Cosmos 2297 3.7 22:48:47 62° E 22:48:47 62° E 22:54:11 10° NNE
USA 238 DEB 4.2 22:43:38 10° NW 22:50:34 53° WSW 22:52:33 42° SSW
USA 238 4.2 22:43:44 10° NW 22:50:40 54° WSW 22:52:38 42° SSW
Cosmos 1340 4.5 22:49:10 10° NW 22:52:11 25° W 22:52:11 25° W
Cosmos 1241 Rocket 4.3 22:52:17 67° SSE 22:52:57 75° ESE 22:59:11 10° NNE
SL-08 ROCKET BODY 4.5 22:47:58 10° N 22:54:06 61° E 22:54:34 59° ESE
NOSS 2-2 (C) 4.3 22:55:16 44° NW 22:55:16 44° NW 22:59:07 10° NNE
Cosmos 2082 Rocket 2.9 22:51:00 10° N 22:56:22 41° ENE 22:56:41 40° ENE
Cosmos 1833 Rocket 3.1 22:51:24 10° N 22:56:49 47° ENE 22:57:01 47° ENE
Cosmos 1709 Rocket 3.8 22:53:31 10° N 22:59:44 85° E 23:00:25 72° SSE
ATLAS 3B CENTAUR R/B 3.4 22:43:33 10° WSW 23:00:08 54° S 23:01:26 51° SSE
Landsat 7 4.4 23:00:13 47° WSW 23:00:18 47° W 23:04:53 10° NNW
NOSS 3-2 (A) 4.1 22:54:34 10° NW 23:02:21 73° WSW 23:04:29 53° S
CZ-2C R/B 2.5 22:57:31 10° NNE 23:02:37 74° ENE 23:02:37 74° ENE
Cosmos 1455 4.3 23:07:22 10° N 23:09:00 22° NNE 23:09:00 22° NNE
Aureole 3 Rocket 4.3 23:11:17 49° SSW 23:13:30 74° W 23:19:28 10° N
Meteor 2-19 Rocket 4.3 23:08:15 10° N 23:14:25 79° E 23:14:37 78° ESE
RESURS DK-1 3.7 23:17:46 37° NNW 23:17:46 37° NNW 23:20:34 10° NNE
Terra 2.6 23:20:16 44° W 23:20:16 44° W 23:24:19 10° NNW
Cosmos 2221 4.1 23:18:45 10° NNW 23:21:54 30° WNW 23:21:54 30° WNW
NOSS 3-2 (C) 4.1 23:20:33 10° NW 23:28:19 68° WSW 23:29:39 60° SSW
Cosmos 1992 Rocket 4.3 23:24:34 10° NNW 23:28:59 64° NNW 23:28:59 64° NNW
EO 1 Delta rocket 4.3 23:25:12 10° N 23:31:22 69° WNW 23:31:22 69° WNW
COBE Rocket 4.4 23:30:41 10° N 23:35:05 63° NNW 23:35:05 63° NNW
CZ-2C R/B 4.2 23:41:40 40° W 23:41:42 40° W 23:47:06 10° NNW
ADEOS Rocket 3.5 23:40:19 10° NNE 23:45:35 51° ENE 23:45:35 51° ENE
Cosmos 2184 Rocket 4.0 23:47:18 10° N 23:53:16 80° N 23:53:16 80° N
